Kamloops,

6:44 AM PDT on July 21, 2017 (GMT -0700)
Kamloops

Weather History for CYKA - April, 2013

Change the Weather History Date:

Sunday, April 7, 2013

  Actual Average Record
Temperature  
Mean Temperature 42 °F -  
Max Temperature 53 °F 63 °F 77 °F (2007)
Min Temperature 30 °F 38 °F 28 °F (2012)
Degree Days  
Heating Degree Days 24    
Moisture  
Dew Point 29 °F    
Average Humidity 56    
Maximum Humidity 75    
Minimum Humidity 33    
Precipitation  
Precipitation 0.00 in 0.02 in - ()
Sea Level Pressure  
Sea Level Pressure 29.70 in    
Wind  
Wind Speed 5 mph ()    
Max Wind Speed 20 mph    
Max Gust Speed 23 mph    
Averages and records for this station are not official NWS values.
T = Trace of Precipitation, MM = Missing Value Source: Averaged Metar Reports

Daily Weather History Graph

Daily Weather History Graph

Search for Another Location

Airport or City:

Trip Planner

Search our weather history database for the weather conditions in past years. The results will help you decide how hot, cold, wet, or windy it might be!

Date:

Astronomy

Apr. 07, 2013 Rise Set
Actual Time 6:23 AM PDT 7:44 PM PDT
Civil Twilight 5:50 AM PDT 8:18 PM PDT
Nautical Twilight 5:08 AM PDT 9:00 PM PDT
Astronomical Twilight 4:24 AM PDT 9:45 PM PDT
Moon 4:59 AM PDT (4/7) 5:09 PM PDT (4/7)
Length of Visible Light 14h 28m
Length of Day
13h 20m
Waning Crescent, 7% of the Moon is Illuminated
Apr 7
Waning Crescent
Apr 10
New
Apr 18
First Quarter
Apr 25
Full
May 2
Last Quarter

Hourly Weather History & Observations

Time (PDT) Temp. Windchill Dew Point Humidity Pressure Visibility Wind Dir Wind Speed Gust Speed Precip Events Conditions
12:00 AM 41.0 °F 39.0 °F 24.8 °F 53% 29.79 in 40.0 mi NE 3.5 mph - N/A   Clear
1:00 AM 37.4 °F - 26.6 °F 65% 29.78 in 40.0 mi Calm Calm - N/A   Clear
2:00 AM 37.4 °F - 24.8 °F 60% 29.77 in 40.0 mi Calm Calm - N/A   Clear
4:00 AM 33.8 °F - 24.8 °F 70% 29.74 in 40.0 mi Calm Calm - N/A   Clear
5:00 AM 33 °F - 23 °F 55% 29.74 in 37 mi Calm Calm - -   Scattered Clouds
5:00 AM 32.0 °F - 23.0 °F 69% 29.74 in 40.0 mi Calm Calm - N/A   Partly Cloudy
6:00 AM 33.8 °F - 24.8 °F 70% 29.73 in 40.0 mi Calm Calm - N/A   Partly Cloudy
7:00 AM 32.0 °F - 23.0 °F 69% 29.73 in 40.0 mi Calm Calm - N/A   Mostly Cloudy
8:00 AM 35.6 °F - 28.4 °F 75% 29.73 in 40.0 mi Calm Calm - N/A   Overcast
10:00 AM 39.2 °F - 28.4 °F 65% 29.69 in 40.0 mi WNW 2.3 mph - N/A   Overcast
11:00 AM 41 °F - 28 °F 48% 29.69 in 37 mi West 5.8 mph - -   Overcast
11:00 AM 41.0 °F 37.1 °F 28.4 °F 61% 29.69 in 40.0 mi West 5.8 mph - N/A   Overcast
12:00 PM 42.8 °F 39.3 °F 28.4 °F 57% 29.68 in 40.0 mi West 5.8 mph - N/A   Overcast
1:00 PM 46.4 °F 40.1 °F 28.4 °F 50% 29.66 in 40.0 mi West 15.0 mph - N/A   Overcast
2:00 PM 50.0 °F - 30.2 °F 47% 29.64 in 40.0 mi West 11.5 mph - N/A   Mostly Cloudy
3:00 PM 53.6 °F - 30.2 °F 41% 29.63 in 40.0 mi West 11.5 mph - N/A   Mostly Cloudy
4:00 PM 51.8 °F - 30.2 °F 44% 29.63 in 40.0 mi WNW 13.8 mph - N/A   Mostly Cloudy
5:00 PM 51 °F - 31 °F 33% 29.64 in 37 mi West 15.0 mph - -   Overcast
5:00 PM 51.8 °F - 30.2 °F 44% 29.64 in 40.0 mi West 15.0 mph - N/A   Overcast
6:00 PM 50.0 °F - 33.8 °F 54% 29.65 in 40.0 mi West 13.8 mph - N/A   Overcast
7:00 PM 50.0 °F - 33.8 °F 54% 29.66 in 40.0 mi West 12.7 mph - N/A   Overcast
8:00 PM 48.2 °F - 33.8 °F 58% 29.67 in 40.0 mi West 10.4 mph - N/A   Overcast
9:00 PM 48.2 °F - 33.8 °F 58% 29.69 in 40.0 mi West 19.6 mph - N/A   Overcast
9:47 PM - - - N/A% - 40.0 mi NW 10.4 mph - N/A Rain Light Rain Showers
10:00 PM 50.0 °F - 33.8 °F 54% 29.72 in 40.0 mi West 17.3 mph - N/A   Overcast
11:00 PM 49 °F - 33 °F 43% 29.75 in 37 mi West 17.3 mph - -   Partly Cloudy
11:00 PM 48.2 °F - 33.8 °F 58% 29.75 in 40.0 mi West 17.3 mph 23.0 mph N/A   Overcast